COSMOS 2589

Satellite information

Favourite Embed

Satellite Type and Status

PAYLOADIN ORBIT

Key statistics

Satellite COSMOS 2589 at a glance.

Uptime

19

Days in orbit

Revolutions

≈ 1.0

Per day

Orbit

OTHER

Other

Inclination

1.0

Latest

Satellite identification and parameters

Extended collection of information and parameters for COSMOS 2589.

Object identification

Identified? True

Debris? False

Object name: COSMOS 2589

International designator: 2025-131A

Object number (NORAD): 64467

Object ID (CCSDS): 64467

Country: COMMONWEALTH OF INDEPENDENT STATES (CIS)

Current information (Y/N): Y

RCS size: LARGE

Orbital parameters

Period: 1436.123 minutes

Inclination: 1.0307 deg

SMA: 42165.252 km

Apoapsis: 51204.327 km

Periapsis: 20369.907 km

RAAN: 280.8019 deg

Eccentricy: 0.3656378

Argument of periapsis: 173.7175 deg

Mean anomaly: 200.2004 deg

Mean motion: 1.00269931 rev/day

Mean motion (dot): -0.00000303 rev/day2

B* drag term: 0.0 1/REarth

Two-line elements (TLE)

Creation date: July 7, 2025, 7:06 p.m.

Reference frame: TEME

Reference center: EARTH

Epoch: July 7, 2025, 5:48 p.m. UTC

TLE line 0: 0 COSMOS 2589

TLE line 1: 1 64467U 25131A 25188.74187060 -.00000303 00000-0 00000+0 0 9992

TLE line 2: 2 64467 1.0307 280.8019 3656378 173.7175 200.2004 1.00269931 174

Live tracking on map

Real-time ground track for satellite COSMOS 2589.

In-orbit conjunctions

There are no conjunctions computed for COSMOS 2589, at the moment. Check back to stay up to date, as we update our databases every day.

Go to all conjunctions

Associated space launch

Unidentified payload for the Russian military.

COSMOS 2589 was lifted into orbit during the mission ‘Angara A5/Briz-M | Kosmos 2589’, on board a Angara A5/Briz-M space rocket.

The launch took place on June 19, 2025, 3 a.m. from 35/1.

For more information about the launch, click the button.

Launch to space Angara A5/Briz-M | Kosmos 2589
Angara A5/Briz-M | Kosmos 2589

Agency: N/A

Status: Launch Successful

Launch date: June 19, 2025, 3 a.m. UTC

Rocket: Angara A5/Briz-M

Launch pad: 35/1

Location: Plesetsk Cosmodrome, Russian Federation

...

Latest news about this satellite

There are no fresh news available about this satellite. Check back as we update our databases every day.


Newsletter sign-up

Weekly statistics, charts and insights to help you stay on top of the space industry.